This demonstration page uses our WeatherBlox Daily Observations layout. Learn more.

Left ArrowRight Arrow

41.86663, -103.66717

Hourly Observations for June 23, 2016

Temp ( °F °C ) Dew Point ( °F °C ) Humidity (%) Winds ( mph kmh ) Pressure ( in mb ) Visibility ( mi km ) Precip ( " mm )
12:53 am 00:53 Clear 69 20.6 46 7.8 44 44 ESE 16 26 29.91 1013 10 16 0.00 0.00
1:53 am 01:53 Clear 70 21.1 42 5.6 37 37 SE 12 19 29.90 1013 10 16 0.00 0.00
2:53 am 02:53 Clear 65 18.3 44 6.7 47 47 ESE 13 20 29.91 1013 10 16 0.00 0.00
3:53 am 03:53 Clear 65 18.3 45 7.2 49 49 ESE 13 20 29.92 1013 10 16 0.00 0.00
4:53 am 04:53 Clear 64 17.8 44 6.7 48 48 E 12 19 29.94 1014 10 16 0.00 0.00
5:53 am 05:53 Sunny 64 17.8 45 7.2 50 50 E 13 20 29.95 1014 10 16 0.00 0.00
6:53 am 06:53 Sunny 67 19.4 48 8.9 51 51 E 12 19 29.96 1014 10 16 0.00 0.00
7:53 am 07:53 Sunny 71 21.7 51 10.6 49 49 ESE 10 17 29.95 1014 10 16 0.00 0.00
8:53 am 08:53 Sunny 75 23.9 53 11.7 46 46 ESE 10 17 29.95 1014 10 16 0.00 0.00
9:53 am 09:53 Sunny 80 26.7 56 13.3 44 44 ESE 15 24 29.93 1014 10 16 0.00 0.00
10:53 am 10:53 Sunny 84 28.9 56 13.3 38 38 SE 13 20 29.90 1013 10 16 0.00 0.00
11:53 am 11:53 Sunny 86 30 56 13.3 36 36 VRB 7 11 29.91 1013 10 16 0.00 0.00
12:53 pm 12:53 Sunny 90 32.2 57 13.9 33 33 SE 13 20 29.88 1012 10 16 0.00 0.00
1:53 pm 13:53 Sunny 93 33.9 56 13.3 29 29 SE 15 24 29.85 1011 10 16 0.00 0.00
2:53 pm 14:53 Sunny 94 34.4 56 13.3 28 28 SE 12 19 29.84 1011 10 16 0.00 0.00
3:53 pm 15:53 Sunny 91 32.8 53 11.7 27 27 SE 9 15 29.81 1010 10 16 0.00 0.00
4:08 pm 16:08 Sunny with Nearby Thunderstorms 91 33 52 11 26 26 SE 7 11 29.59 1002 10 16 0.00 0.00
4:19 pm 16:19 Partly Cloudy with Thunderstorms 89 31.7 54 12.2 30 30 SSW 9 15 29.65 1004 10 16 0.00 0.00
4:40 pm 16:40 Cloudy with Thunderstorms 72 22 59 15 65 65 W 10 17 29.83 1010 10 16 0.00 0.00
4:53 pm 16:53 Mostly Cloudy with Thunderstorms 70 21.1 59 15 68 68 undefined N/A 29.92 1013 8 13 0.00 0.03
5:31 pm 17:31 Sunny 76 24.4 60 15.6 58 58 E 3 6 29.71 1006 10 16 0.01 0.25
5:53 pm 17:53 Sunny 82 27.8 57 13.9 42 42 SSE 6 9 29.81 1010 10 16 0.01 0.25
6:53 pm 18:53 Sunny 75 23.9 57 13.9 54 54 ESE 22 35 29.88 1012 10 16 0.00 0.00
7:53 pm 19:53 Sunny 73 22.8 60 15.6 64 64 SE 13 20 29.88 1012 10 16 0.00 0.00
8:53 pm 20:53 Clear 72 22.2 59 15 64 64 SSE 12 19 29.90 1012 10 16 0.00 0.00
9:53 pm 21:53 Mostly Clear 73 22.8 55 12.8 53 53 S 13 20 29.93 1014 10 16 0.00 0.00
10:53 pm 22:53 Clear 72 22.2 56 13.3 57 57 SE 10 17 29.90 1013 10 16 0.00 0.00
11:53 pm 23:53 Clear 72 22.2 55 12.8 55 55 S 12 19 29.87 1012 10 16 0.00 0.00

Powered by AerisWeather